• în România
  • Lista ţărilor
  • Pe 7 zile
  • Temperatura apei
  • Hartă satelitară
  • Meteo pe hartă
  • Widget-uri
  • user-avatar
    Intrare

    Meteo pe oră la Adelaide

    Astăzi, 26 Iunie, Luni

    Timp Temperatura Precipitaţii Vânt Presiune Umiditate
    00:00 +9°C° 0 mm 2 m/s 763 mmHg 91%
    01:00 +9°C° 0 mm 2 m/s 763 mmHg 91%
    02:00 +9°C° 0 mm 2 m/s 763 mmHg 92%
    03:00 +9°C° 0 mm 2 m/s 763 mmHg 94%
    04:00 +8°C° 0 mm 2 m/s 763 mmHg 94%
    05:00 +9°C° 0 mm 1 m/s 763 mmHg 95%
    06:00 +9°C° 0 mm 1 m/s 763 mmHg 95%
    07:00 +10°C° 0 mm 1 m/s 764 mmHg 91%
    08:00 +12°C° 0 mm 1 m/s 764 mmHg 86%
    09:00 +13°C° 0 mm 1 m/s 765 mmHg 80%
    10:00 +15°C° 0 mm 1 m/s 764 mmHg 74%
    11:00 +16°C° 0 mm 1 m/s 764 mmHg 67%
    12:00 +18°C° 0 mm 1 m/s 764 mmHg 61%
    13:00 +18°C° 0 mm 1 m/s 764 mmHg 62%
    14:00 +16°C° 0 mm 1 m/s 764 mmHg 63%
    15:00 +14°C° 0 mm 0 m/s 764 mmHg 67%
    16:00 +13°C° 0 mm 0 m/s 764 mmHg 73%
    17:00 +11°C° 0 mm 0 m/s 764 mmHg 79%
    18:00 +10°C° 0 mm 0 m/s 764 mmHg 86%
    19:00 +11°C° 0 mm 1 m/s 764 mmHg 86%
    20:00 +11°C° 0 mm 1 m/s 764 mmHg 87%
    21:00 +11°C° 0 mm 1 m/s 764 mmHg 91%
    22:00 +11°C° 0 mm 1 m/s 764 mmHg 90%
    23:00 +11°C° 0 mm 1 m/s 764 mmHg 90%

    Mâine, 27 Iunie, Marţi

    Timp Temperatura Precipitaţii Vânt Presiune Umiditate
    00:00 +9°C° 0 mm 2 m/s 764 mmHg 89%
    01:00 +10°C° 0 mm 2 m/s 764 mmHg 88%
    02:00 +10°C° 0 mm 2 m/s 763 mmHg 87%
    03:00 +10°C° 0 mm 2 m/s 763 mmHg 86%
    04:00 +10°C° 0 mm 2 m/s 763 mmHg 85%
    05:00 +10°C° 0 mm 2 m/s 763 mmHg 83%
    06:00 +10°C° 0 mm 2 m/s 763 mmHg 81%
    07:00 +12°C° 0 mm 2 m/s 763 mmHg 76%
    08:00 +12°C° 0 mm 3 m/s 763 mmHg 70%
    09:00 +13°C° 0 mm 3 m/s 764 mmHg 64%
    10:00 +14°C° 0 mm 3 m/s 763 mmHg 60%
    11:00 +16°C° 0 mm 3 m/s 763 mmHg 57%
    12:00 +17°C° 0 mm 2 m/s 763 mmHg 53%
    13:00 +17°C° 0 mm 2 m/s 762 mmHg 53%
    14:00 +17°C° 0 mm 2 m/s 762 mmHg 54%
    15:00 +18°C° 0 mm 1 m/s 761 mmHg 55%
    16:00 +15°C° 0 mm 1 m/s 762 mmHg 62%
    17:00 +13°C° 0 mm 2 m/s 762 mmHg 70%
    18:00 +12°C° 0 mm 2 m/s 762 mmHg 78%
    19:00 +10°C° 0,1 mm 2 m/s 762 mmHg 81%
    20:00 +10°C° 0,1 mm 2 m/s 762 mmHg 84%
    21:00 +9°C° 0,1 mm 2 m/s 763 mmHg 88%
    22:00 +9°C° 0 mm 2 m/s 762 mmHg 88%
    23:00 +9°C° 0 mm 2 m/s 762 mmHg 89%

    Poimâine, 28 Iunie, Miercuri

    Timp Temperatura Precipitaţii Vânt Presiune Umiditate
    00:00 +9°C° 0 mm 2 m/s 762 mmHg 90%
    01:00 +9°C° 0 mm 2 m/s 762 mmHg 90%
    02:00 +9°C° 0 mm 2 m/s 762 mmHg 90%
    03:00 +8°C° 0 mm 2 m/s 762 mmHg 91%
    04:00 +8°C° 0 mm 2 m/s 762 mmHg 91%
    05:00 +8°C° 0 mm 2 m/s 762 mmHg 91%
    06:00 +8°C° 0 mm 2 m/s 762 mmHg 91%
    07:00 +9°C° 0 mm 2 m/s 762 mmHg 86%
    08:00 +10°C° 0 mm 2 m/s 763 mmHg 80%
    09:00 +13°C° 0 mm 2 m/s 763 mmHg 75%
    10:00 +14°C° 0 mm 2 m/s 763 mmHg 69%
    11:00 +16°C° 0 mm 1 m/s 762 mmHg 62%
    12:00 +18°C° 0 mm 1 m/s 762 mmHg 55%
    13:00 +18°C° 0,2 mm 1 m/s 762 mmHg 56%
    14:00 +18°C° 0,2 mm 1 m/s 762 mmHg 57%
    15:00 +16°C° 0,2 mm 1 m/s 762 mmHg 58%
    16:00 +14°C° 0,2 mm 1 m/s 762 mmHg 68%
    17:00 +12°C° 0,2 mm 1 m/s 762 mmHg 79%
    18:00 +9°C° 0,2 mm 1 m/s 763 mmHg 89%
    19:00 +9°C° 0 mm 1 m/s 763 mmHg 90%
    20:00 +9°C° 0 mm 1 m/s 763 mmHg 90%
    21:00 +9°C° 0 mm 1 m/s 764 mmHg 91%
    22:00 +8°C° 0 mm 2 m/s 764 mmHg 91%
    23:00 +8°C° 0 mm 2 m/s 764 mmHg 91%

    29 Iunie, Joi

    Timp Temperatura Precipitaţii Vânt Presiune Umiditate
    00:00 +9°C° 0 mm 2 m/s 764 mmHg 92%
    01:00 +9°C° 0 mm 2 m/s 764 mmHg 92%
    02:00 +9°C° 0 mm 3 m/s 764 mmHg 92%
    03:00 +9°C° 0 mm 3 m/s 764 mmHg 92%
    04:00 +9°C° 0 mm 3 m/s 764 mmHg 91%
    05:00 +9°C° 0 mm 3 m/s 765 mmHg 91%
    06:00 +9°C° 0 mm 3 m/s 765 mmHg 90%
    07:00 +10°C° 0 mm 4 m/s 765 mmHg 85%
    08:00 +11°C° 0 mm 4 m/s 766 mmHg 79%
    09:00 +12°C° 0 mm 4 m/s 766 mmHg 74%
    10:00 +12°C° 0 mm 4 m/s 766 mmHg 68%
    11:00 +13°C° 0 mm 4 m/s 766 mmHg 63%
    12:00 +13°C° 0 mm 4 m/s 765 mmHg 57%
    13:00 +13°C° 0 mm 4 m/s 765 mmHg 59%
    14:00 +13°C° 0 mm 4 m/s 765 mmHg 62%
    15:00 +13°C° 0 mm 4 m/s 765 mmHg 64%
    16:00 +13°C° 0,2 mm 4 m/s 766 mmHg 71%
    17:00 +12°C° 0,2 mm 4 m/s 766 mmHg 78%
    18:00 +11°C° 0,2 mm 4 m/s 766 mmHg 84%
    19:00 +10°C° 0 mm 4 m/s 767 mmHg 85%
    20:00 +8°C° 0 mm 4 m/s 767 mmHg 85%
    21:00 +9°C° 0 mm 3 m/s 768 mmHg 85%
    22:00 +8°C° 0 mm 3 m/s 768 mmHg 85%
    23:00 +7°C° 0 mm 3 m/s 768 mmHg 85%

    30 Iunie, Vineri

    Timp Temperatura Precipitaţii Vânt Presiune Umiditate
    00:00 +7°C° 0 mm 2 m/s 769 mmHg 85%
    01:00 +7°C° 0 mm 2 m/s 769 mmHg 85%
    02:00 +6°C° 0 mm 2 m/s 769 mmHg 86%
    03:00 +6°C° 0 mm 2 m/s 769 mmHg 87%
    04:00 +5°C° 0 mm 2 m/s 769 mmHg 88%
    05:00 +5°C° 0 mm 2 m/s 769 mmHg 89%
    06:00 +5°C° 0 mm 2 m/s 769 mmHg 91%
    07:00 +6°C° 0 mm 2 m/s 770 mmHg 85%
    08:00 +7°C° 0 mm 2 m/s 770 mmHg 79%
    09:00 +8°C° 0 mm 2 m/s 770 mmHg 72%
    10:00 +9°C° 0 mm 2 m/s 770 mmHg 64%
    11:00 +12°C° 0 mm 2 m/s 770 mmHg 57%
    12:00 +13°C° 0 mm 2 m/s 769 mmHg 49%
    13:00 +13°C° 0 mm 2 m/s 769 mmHg 47%
    14:00 +13°C° 0 mm 2 m/s 768 mmHg 45%
    15:00 +14°C° 0 mm 2 m/s 768 mmHg 42%
    16:00 +12°C° 0 mm 2 m/s 768 mmHg 48%
    17:00 +9°C° 0 mm 2 m/s 768 mmHg 53%
    18:00 +7°C° 0 mm 2 m/s 768 mmHg 58%
    19:00 +7°C° 0 mm 3 m/s 768 mmHg 59%
    20:00 +7°C° 0 mm 3 m/s 768 mmHg 59%
    21:00 +5°C° 0 mm 3 m/s 768 mmHg 59%
    22:00 +5°C° 0 mm 3 m/s 768 mmHg 59%
    23:00 +5°C° 0 mm 4 m/s 767 mmHg 58%

    1 Iulie, Sâmbătă

    Timp Temperatura Precipitaţii Vânt Presiune Umiditate
    00:00 +5°C° 0 mm 4 m/s 767 mmHg 58%
    01:00 +5°C° 0 mm 4 m/s 767 mmHg 57%
    02:00 +5°C° 0 mm 4 m/s 767 mmHg 57%
    03:00 +5°C° 0 mm 4 m/s 766 mmHg 56%
    04:00 +5°C° 0 mm 4 m/s 766 mmHg 57%
    05:00 +5°C° 0 mm 4 m/s 766 mmHg 57%
    06:00 +5°C° 0 mm 4 m/s 766 mmHg 58%
    07:00 +6°C° 0 mm 4 m/s 766 mmHg 54%
    08:00 +7°C° 0 mm 4 m/s 766 mmHg 50%
    09:00 +8°C° 0 mm 4 m/s 766 mmHg 46%
    10:00 +10°C° 0 mm 4 m/s 766 mmHg 42%
    11:00 +12°C° 0 mm 4 m/s 765 mmHg 38%
    12:00 +13°C° 0 mm 4 m/s 764 mmHg 34%
    13:00 +13°C° 0 mm 4 m/s 764 mmHg 36%
    14:00 +14°C° 0 mm 4 m/s 763 mmHg 38%
    15:00 +14°C° 0 mm 4 m/s 763 mmHg 39%
    16:00 +13°C° 0 mm 4 m/s 763 mmHg 46%
    17:00 +11°C° 0 mm 4 m/s 763 mmHg 52%
    18:00 +10°C° 0 mm 4 m/s 763 mmHg 58%
    19:00 +10°C° 0 mm 4 m/s 762 mmHg 57%
    20:00 +8°C° 0 mm 4 m/s 762 mmHg 56%
    21:00 +8°C° 0 mm 4 m/s 762 mmHg 55%
    22:00 +8°C° 0 mm 4 m/s 762 mmHg 56%
    23:00 +8°C° 0 mm 4 m/s 761 mmHg 57%
    Arată mai mult